Track STARLINK-2598 now! 10-day predictions STARLINK-2598 is classified as:
1 48385U 21038AJ 22186.71960490 .00001076 00000-0 91155-4 0 9996 2 48385 53.0557 260.4499 0001638 65.2438 294.8721 15.06400044 65979